Regional Weather Roundup
Issued by NWS

Home | Current Version | Previous Version | Text Only | Print | Product List | Glossary Off
Versions: 1 2 3 4 5 6 7 8 9 10 11 12 13 14 15 16 17 18 19 20 21 22 23 24 25 26 27 28 29 30 31 32 33 34 35 36 37 38 39 40 41 42 43 44 45 46 47 48 49 50

000
ASUS43 KLMK 210102
RWRKY
KENTUCKY REGIONAL WEATHER ROUNDUP
NATIONAL WEATHER SERVICE LOUISVILLE KY
900 PM EDT SAT SEP 20 2014

NOTE "FAIR" INDICATES FEW OR NO CLOUDS BELOW 12,000 FEET
WITH NO SIGNIFICANT WEATHER AND/OR OBSTRUCTIONS TO VISIBILITY.

KYZ001>023-026-027-061>063-070>075-210200-
WESTERN AND SOUTH CENTRAL KENTUCKY

CITY           SKY/WX    TMP DP  RH WIND       PRES   REMARKS
PADUCAH        CLEAR     80  68  66 VRB5      29.95S
HENDERSON      PTCLDY    73  63  68 SW5       29.95R
OWENSBORO      PTCLDY    73  65  76 S6        29.96S
HOPKINSVILLE   CLEAR     76  69  79 S3        29.99R
BOWLING GREEN  PTCLDY    73  68  84 SW3       29.99R
GLASGOW        PTCLDY    73  65  75 CALM      30.00R
$$

KYZ024-025-028>034-038-045-046-053-210200-
NORTH CENTRAL KENTUCKY

CITY           SKY/WX    TMP DP  RH WIND       PRES   REMARKS
LOUISVILLE/SDF MOCLDY    78  65  63 S5        29.97R
LOUISVILLE/LOU CLEAR     77  65  66 CALM      29.98R
FORT KNOX      CLEAR     73  66  79 S5        29.97R
$$

KYZ035>037-039>044-047>052-055>060-089>105-210200-
NORTHEAST KENTUCKY

CITY           SKY/WX    TMP DP  RH WIND       PRES   REMARKS
LEXINGTON      CLEAR     73  64  73 S6        30.01R
COVINGTON      MOCLDY    73  65  75 SW5       29.98R
FRANKFORT      PTCLDY    69  64  84 CALM      29.99R
$$

KYZ054-064>069-076>088-106>120-210200-
SOUTHEAST KENTUCKY

CITY           SKY/WX    TMP DP  RH WIND       PRES   REMARKS
JACKSON        CLEAR     71  63  75 CALM      30.05R
LONDON         CLEAR     71  64  78 CALM      30.05R
SOMERSET       CLEAR     70  64  83 CALM      30.05R
MIDDLESBORO    CLEAR     67  63  85 CALM      30.05R
MONTICELLO     CLEAR     66  64  93 CALM      30.05R
$$



USA.gov is the U.S. government's official web portal to all federal, state and local government web resources and services.